Weather History for Kokomo, IN

Change the Weather History Date:

Saturday, January 19, 2013

  Actual Average (KGUS) Record (KGUS)
Temperature  
Mean Temperature 42 °F -  
Max Temperature 48 °F 28 °F 53 °F (2004)
Min Temperature 37 °F 16 °F 0 °F (1997)
Degree Days  
Heating Degree Days 22    
Moisture  
Dew Point 30 °F    
Average Humidity 63    
Maximum Humidity 76    
Minimum Humidity 50    
Precipitation  
Precipitation 0.00 in - - ()
Sea Level Pressure  
Sea Level Pressure 29.94 in    
Wind  
Wind Speed 23 mph (SW)    
Max Wind Speed 29 mph    
Max Gust Speed 36 mph    
Visibility 10 miles    
Events      
Averages and records for this station are not official NWS values.
T = Trace of Precipitation, MM = Missing Value Source: NWS Daily Summary

Daily Weather History Graph

Daily Weather History Graph

Search for Another Location

Airport:

Trip Planner

Search our weather history database for the weather conditions in past years. The results will help you decide how hot, cold, wet, or windy it might be!

Date:

Astronomy

Jan. 19, 2013 Rise Set
Actual Time 7:03 AM CST 4:46 PM CST
Civil Twilight 6:33 AM CST 5:16 PM CST
Nautical Twilight 6:00 AM CST 5:50 PM CST
Astronomical Twilight 5:27 AM CST 6:22 PM CST
Moon 11:13 AM CST 12:36 AM CST
Length of Visible Light 10h 42m
Length of Day
9h 43m
First Quarter, 57% of the Moon is Illuminated
Jan 19
First Quarter
Jan 26
Full
Feb 3
Last Quarter
Feb 10
New
Feb 17
First Quarter

Hourly Weather History & Observations

Time (CST) Temp. Windchill Dew Point Humidity Pressure Visibility Wind Dir Wind Speed Gust Speed Precip Events Conditions
12:15 AM 37.4 °F 26.1 °F 24.8 °F 60% 30.07 in 10.0 mi SW 24.2 mph 31.1 mph N/A   Clear
12:35 AM 39.2 °F 28.7 °F 24.8 °F 56% 30.08 in 10.0 mi SW 23.0 mph 33.4 mph N/A   Clear
12:55 AM 37.4 °F 26.1 °F 24.8 °F 60% 30.07 in 10.0 mi SW 24.2 mph 32.2 mph N/A   Clear
1:15 AM 37.4 °F 25.9 °F 26.6 °F 65% 30.08 in 10.0 mi SW 25.3 mph 31.1 mph N/A   Clear
1:35 AM 37.4 °F 26.6 °F 26.6 °F 65% 30.08 in 10.0 mi SW 21.9 mph 31.1 mph N/A   Clear
1:55 AM 37.4 °F 25.6 °F 26.6 °F 65% 30.08 in 10.0 mi SW 26.5 mph 32.2 mph N/A   Clear
2:15 AM 37.4 °F 25.4 °F 24.8 °F 60% 30.07 in 10.0 mi SW 27.6 mph 33.4 mph N/A   Clear
2:35 AM 37.4 °F 25.6 °F 24.8 °F 60% 30.07 in 10.0 mi SW 26.5 mph 34.5 mph N/A   Clear
2:55 AM 37.4 °F 25.6 °F 24.8 °F 60% 30.06 in 10.0 mi SW 26.5 mph 34.5 mph N/A   Clear
3:15 AM 37.4 °F 26.1 °F 24.8 °F 60% 30.06 in 10.0 mi SW 24.2 mph 29.9 mph N/A   Clear
3:35 AM 37.4 °F 25.9 °F 24.8 °F 60% 30.05 in 10.0 mi SW 25.3 mph 35.7 mph N/A   Clear
3:55 AM 37.4 °F 26.1 °F 26.6 °F 65% 30.04 in 10.0 mi SW 24.2 mph 34.5 mph N/A   Clear
4:15 AM 37.4 °F 25.9 °F 26.6 °F 65% 30.05 in 10.0 mi SW 25.3 mph 32.2 mph N/A   Clear
4:35 AM 37.4 °F 25.9 °F 26.6 °F 65% 30.04 in 10.0 mi SW 25.3 mph 33.4 mph N/A   Clear
4:55 AM 37.4 °F 25.9 °F 26.6 °F 65% 30.04 in 10.0 mi SW 25.3 mph 31.1 mph N/A   Clear
5:15 AM 37.4 °F 25.9 °F 26.6 °F 65% 30.04 in 10.0 mi SW 25.3 mph 31.1 mph N/A   Clear
5:35 AM 37.4 °F 26.6 °F 26.6 °F 65% 30.04 in 10.0 mi SW 21.9 mph 31.1 mph N/A   Clear
5:55 AM 37.4 °F 26.4 °F 26.6 °F 65% 30.03 in 10.0 mi SW 23.0 mph 32.2 mph N/A   Clear
6:15 AM 37.4 °F 26.1 °F 26.6 °F 65% 30.03 in 10.0 mi SW 24.2 mph 31.1 mph N/A   Clear
6:35 AM 37.4 °F 26.9 °F 26.6 °F 65% 30.03 in 10.0 mi SW 20.7 mph 29.9 mph N/A   Clear
6:55 AM 37.4 °F 27.2 °F 24.8 °F 60% 30.03 in 10.0 mi SW 19.6 mph 26.5 mph N/A   Clear
7:15 AM 37.4 °F 26.9 °F 24.8 °F 60% 30.03 in 10.0 mi SW 20.7 mph 26.5 mph N/A   Clear
7:35 AM 37.4 °F 27.2 °F 26.6 °F 65% 30.02 in 10.0 mi SW 19.6 mph 26.5 mph N/A   Clear
7:55 AM 37.4 °F 26.9 °F 26.6 °F 65% 30.02 in 10.0 mi SW 20.7 mph 26.5 mph N/A   Clear
8:15 AM 39.2 °F 29.6 °F 26.6 °F 61% 30.02 in 10.0 mi SW 19.6 mph 27.6 mph N/A   Clear
8:35 AM 39.2 °F 29.6 °F 26.6 °F 61% 30.02 in 10.0 mi SW 19.6 mph 32.2 mph N/A   Clear
8:55 AM 41.0 °F 31.4 °F 26.6 °F 57% 30.03 in 10.0 mi SW 21.9 mph 28.8 mph N/A   Clear
9:15 AM 41.0 °F 31.6 °F 26.6 °F 57% 30.03 in 10.0 mi SW 20.7 mph 28.8 mph N/A   Clear
9:35 AM 42.8 °F 34.0 °F 28.4 °F 57% 30.02 in 10.0 mi SW 20.7 mph 25.3 mph N/A   Clear
9:55 AM 42.8 °F 33.8 °F 28.4 °F 57% 30.01 in 10.0 mi SW 21.9 mph 35.7 mph N/A   Clear
10:15 AM 44.6 °F 35.5 °F 28.4 °F 53% 30.01 in 10.0 mi SW 25.3 mph 35.7 mph N/A   Clear
10:35 AM 44.6 °F 36.1 °F 28.4 °F 53% 29.99 in 10.0 mi SW 21.9 mph 35.7 mph N/A   Clear
10:55 AM 44.6 °F 35.7 °F 28.4 °F 53% 29.98 in 10.0 mi SW 24.2 mph 34.5 mph N/A   Clear
11:15 AM 46.4 °F 37.5 °F 30.2 °F 53% 29.96 in 10.0 mi SW 27.6 mph 32.2 mph N/A   Clear
11:35 AM 46.4 °F 38.1 °F 30.2 °F 53% 29.95 in 10.0 mi SW 24.2 mph 33.4 mph N/A   Clear
11:55 AM 46.4 °F 37.5 °F 30.2 °F 53% 29.93 in 10.0 mi SW 27.6 mph 33.4 mph N/A   Clear
12:15 PM 46.4 °F 38.3 °F 32.0 °F 57% 29.92 in 10.0 mi SW 23.0 mph 31.1 mph N/A   Clear
12:35 PM 48.2 °F - 30.2 °F 50% 29.91 in 10.0 mi SW 25.3 mph 32.2 mph N/A   Clear
12:55 PM 48.2 °F - 33.8 °F 58% 29.89 in 10.0 mi SW 20.7 mph 29.9 mph N/A   Clear
1:15 PM 48.2 °F - 32.0 °F 54% 29.88 in 10.0 mi SW 23.0 mph 27.6 mph N/A   Clear
1:35 PM 48.2 °F - 33.8 °F 58% 29.87 in 10.0 mi SW 25.3 mph 33.4 mph N/A   Clear
1:55 PM 48.2 °F - 33.8 °F 58% 29.86 in 10.0 mi SW 23.0 mph 32.2 mph N/A   Clear
2:15 PM 48.2 °F - 33.8 °F 58% 29.86 in 10.0 mi SW 28.8 mph 34.5 mph N/A   Clear
2:35 PM 48.2 °F - 33.8 °F 58% 29.85 in 10.0 mi SW 21.9 mph 28.8 mph N/A   Clear
2:55 PM 48.2 °F - 33.8 °F 58% 29.85 in 10.0 mi WSW 23.0 mph 33.4 mph N/A   Clear
3:15 PM 48.2 °F - 33.8 °F 58% 29.85 in 10.0 mi SW 21.9 mph 32.2 mph N/A   Clear
3:35 PM 46.4 °F 38.5 °F 33.8 °F 62% 29.84 in 10.0 mi SW 21.9 mph 28.8 mph N/A   Clear
3:55 PM 46.4 °F 38.7 °F 32.0 °F 57% 29.85 in 10.0 mi SW 20.7 mph - N/A   Clear
4:15 PM 46.4 °F 39.0 °F 33.8 °F 62% 29.85 in 10.0 mi SW 19.6 mph 26.5 mph N/A   Clear
4:35 PM 46.4 °F 39.2 °F 33.8 °F 62% 29.84 in 10.0 mi SW 18.4 mph 26.5 mph N/A   Clear
4:55 PM 46.4 °F 39.2 °F 33.8 °F 62% 29.84 in 10.0 mi SW 18.4 mph - N/A   Clear
5:15 PM 44.6 °F 36.9 °F 33.8 °F 66% 29.83 in 10.0 mi SW 18.4 mph - N/A   Clear
5:35 PM 44.6 °F 36.9 °F 33.8 °F 66% 29.83 in 10.0 mi SW 18.4 mph 23.0 mph N/A   Clear
5:55 PM 44.6 °F 37.4 °F 33.8 °F 66% 29.83 in 10.0 mi SW 16.1 mph 23.0 mph N/A   Clear
6:15 PM 44.6 °F 37.2 °F 33.8 °F 66% 29.84 in 10.0 mi SW 17.3 mph - N/A   Clear
6:35 PM 44.6 °F 37.2 °F 33.8 °F 66% 29.84 in 10.0 mi SW 17.3 mph - N/A   Clear
6:55 PM 44.6 °F 36.9 °F 33.8 °F 66% 29.84 in 10.0 mi SW 18.4 mph - N/A   Clear
7:15 PM 42.8 °F 34.8 °F 33.8 °F 70% 29.84 in 10.0 mi SW 17.3 mph 21.9 mph N/A   Clear
7:35 PM 42.8 °F 35.1 °F 33.8 °F 70% 29.84 in 10.0 mi WSW 16.1 mph - N/A   Clear
7:55 PM 41.0 °F 32.2 °F 33.8 °F 76% 29.85 in 10.0 mi WSW 18.4 mph - N/A   Clear
8:15 PM 41.0 °F 32.8 °F 33.8 °F 76% 29.84 in 10.0 mi SW 16.1 mph - N/A   Clear
8:35 PM 41.0 °F 31.9 °F 33.8 °F 76% 29.84 in 10.0 mi WSW 19.6 mph 25.3 mph N/A   Clear
8:55 PM 42.8 °F 33.8 °F 33.8 °F 70% 29.85 in 10.0 mi WSW 21.9 mph 27.6 mph N/A   Clear
9:15 PM 42.8 °F 34.0 °F 33.8 °F 70% 29.85 in 10.0 mi WSW 20.7 mph 27.6 mph N/A   Clear
9:35 PM 42.8 °F 34.0 °F 35.6 °F 76% 29.85 in 10.0 mi WSW 20.7 mph 26.5 mph N/A   Clear
9:55 PM 42.8 °F 33.5 °F 35.6 °F 76% 29.84 in 10.0 mi WSW 23.0 mph 27.6 mph N/A   Clear
10:15 PM 42.8 °F 33.5 °F 35.6 °F 76% 29.85 in 10.0 mi WSW 23.0 mph 26.5 mph N/A   Clear
10:35 PM 42.8 °F 34.3 °F 33.8 °F 70% 29.85 in 10.0 mi West 19.6 mph 27.6 mph N/A   Clear
10:55 PM 42.8 °F 33.1 °F 33.8 °F 70% 29.86 in 10.0 mi West 25.3 mph 32.2 mph N/A   Clear
11:15 PM 41.0 °F 31.1 °F 30.2 °F 65% 29.86 in 10.0 mi West 23.0 mph 35.7 mph N/A   Clear
11:35 PM 39.2 °F 28.0 °F 30.2 °F 70% 29.87 in 10.0 mi West 26.5 mph 34.5 mph N/A   Clear
11:55 PM 39.2 °F 27.6 °F 28.4 °F 65% 29.88 in 10.0 mi West 28.8 mph 35.7 mph N/A   Scattered Clouds